Regional Weather Roundup
Issued by NWS

Home | Current Version | Previous Version | Text Only | Print | Product List | Glossary On
Versions: 1 2 3 4 5 6 7 8 9 10 11 12 13 14 15 16 17 18 19 20 21 22 23 24 25 26 27 28 29 30 31 32 33 34 35 36 37 38 39 40 41 42 43 44 45 46 47 48 49 50
000
ASUS43 KDMX 070906
RWRIA

WEATHER ROUNDUP FOR IOWA
NATIONAL WEATHER SERVICE DES MOINES IA
300 AM CST WED DEC 07 2016

NOTE: "FAIR" INDICATES FEW OR NO CLOUDS BELOW 12,000 FEET WITH NO
SIGNIFICANT WEATHER AND/OR OBSTRUCTIONS TO VISIBILITY.

* - THESE STATIONS ARE NOT NWS STATIONS...THUS NOT UNDER NWS
QUALITY CONTROL.  THEY ALSO DO NOT REPORT WEATHER SUCH
AS PRECIPITATION OR FOG.

IAZ001>003-012>014-020>022-031>034-043>046-071000-
   NORTHWEST IOWA

CITY           SKY/WX    TMP DP  RH WIND       PRES   REMARKS
CARROLL *      PTCLDY    18  10  73 W20G26    30.13S WCI   1
CHEROKEE *     CLOUDY    13   8  80 W10G16    30.13R WCI   0
DENISON *      PTCLDY    16   9  73 W14       30.13F WCI   1
LE MARS *      CLOUDY    14   7  73 NW14      30.16R WCI  -1
ORANGE CITY *  CLOUDY    12   9  85 W26       30.09S WCI  -8
SHELDON *      MOCLDY    12   7  79 W17G24    30.08S WCI  -5
SIOUX CITY     PTCLDY    16   7  67 W14       30.18R WCI   2
SPENCER        CLOUDY    12   6  77 W28       30.08R WCI  -9
STORM LAKE *   CLOUDY    12   9  85 W22       30.10R WCI  -7
$$

IAZ055>058-069>071-079>083-090>094-071000-
   SOUTHWEST IOWA

CITY           SKY/WX    TMP DP  RH WIND       PRES   REMARKS
ATLANTIC *     PTCLDY    19  10  68 NW14G20   30.16S WCI   6
AUDUBON *      CLOUDY    18  10  73 W9G18     30.14F WCI   6
CLARINDA *     CLOUDY    23  14  68 N13       30.20S WCI  11
COUNCIL BLFS * CLOUDY    19  10  68 NW9       30.17S WCI   9
CRESTON *      CLOUDY    21  12  68 NW13      30.16R WCI   9
HARLAN  *      MOCLDY    18  10  73 NW13      30.18F WCI   4
LAMONI         CLOUDY    23  13  65 NW14      30.15R WCI  11
RED OAK *      CLOUDY    21  12  68 NW8       30.19S WCI  12
SHENANDOAH *   CLOUDY    25  14  63 N8        30.19F WCI  16
$$

IAZ047>049-059>061-072>074-084-071000-
   CENTRAL IOWA

CITY           SKY/WX    TMP DP  RH WIND       PRES   REMARKS
AMES           CLOUDY    19  12  74 W18G24    30.13R WCI   4
ANKENY *       CLOUDY    21  12  68 W10G17    30.15F WCI  10
BOONE *        CLOUDY    18  10  73 W21G29    30.11R WCI   1
CHARITON *       N/A     23  14  68 NW13      30.14S WCI  11
DES MOINES     CLOUDY    22  11  62 NW17      30.15R WCI   8
GRINNELL*      CLOUDY    21  14  74 W15       30.12R WCI   7
KNOXVILLE *    CLOUDY    23  12  63 W15G21    30.13S WCI  10
MARSHALLTOWN   PTCLDY    19  12  74 W15G25    30.10R WCI   5
NEWTON *       CLOUDY    21  12  68 W16       30.12S WCI   7
PELLA *        CLOUDY    24  15  68 W12       30.15S WCI  13
PERRY *          N/A     20  14  77 W14G25    30.15S WCI   6
$$

IAZ004>006-015-016-023>025-035-036-071000-
   NORTH CENTRAL IOWA

CITY           SKY/WX    TMP DP  RH WIND       PRES   REMARKS
ALGONA *       CLOUDY    14   9  79 W17G29    30.06R WCI  -3
CLARION *      CLOUDY    16   9  73 W22G32    30.08R WCI  -2
ESTHERVILLE    CLEAR     11   7  84 W20G32    30.04R WCI  -7
FORT DODGE *   PTCLDY    16   7  67 W10G21    30.11R WCI   3
MASON CITY     CLEAR     14   8  77 W21G30    30.04R WCI  -4
FOREST CITY *    N/A     14  10  85 W15G23    30.03R WCI  -1
WEBSTER CITY * CLOUDY    18  10  73 W22G30    30.09R WCI   0
IOWA FALLS *     N/A     18  13  79 W18G25    30.09R WCI   3
$$

IAZ007>011-017>019-026>030-037>042-050>054-066-071000-
   NORTHEAST IOWA

CITY           SKY/WX    TMP DP  RH WIND       PRES   REMARKS
CEDAR RAPIDS   CLEAR     20  15  81 W18       30.09R WCI   5
CHARLES CITY * MOCLDY    16   9  73 W15G25    30.03R WCI   1
CLINTON *      CLOUDY    23  18  81 W22       30.06R WCI   8
DECORAH *      FLURRIES  16  10  79 W10       29.98R WCI   3
DUBUQUE        FLURRIES  19  12  74 W21G29    30.02R WCI   3
MONTICELLO *   CLEAR     19  14  79 W15G21    30.06R WCI   5
OELWEIN *      CLOUDY    18  14  86 W18G25    30.04R WCI   2
WATERLOO       CLOUDY    18  10  71 W15G28    30.07R WCI   4
$$

IAZ064-065-067-068-078-071000-
   EAST CENTRAL IOWA

CITY           SKY/WX    TMP DP  RH WIND       PRES   REMARKS
DAVENPORT      CLOUDY    24  17  74 W20       30.08R WCI  10
IOWA CITY      CLEAR     24  14  65 W16G23    30.13R WCI  11
MUSCATINE *    CLEAR     27  16  63 W15       30.13R WCI  15
QUAD CITIES    CLEAR     27  15  61 W22G29    30.08R WCI  13
$$

IAZ062-063-075>077-085>089-095>099-071000-
   SOUTHEAST IOWA

CITY           SKY/WX    TMP DP  RH WIND       PRES   REMARKS
BURLINGTON     PTCLDY    27  16  63 W8G17     30.12R WCI  19
FAIRFIELD *    CLOUDY    27  14  59 W14       30.14R WCI  15
FORT MADISON * PTCLDY    28  18  64 NW12      30.13R WCI  18
KEOKUK *       CLOUDY    30  16  55 NW10G17   30.13R WCI  21
OSKALOOSA *      N/A     24  16  71 W13G20    30.14R WCI  12
CENTERVILLE *    N/A     25  14  63 W13       30.15R WCI  13
OTTUMWA        PTCLDY    25  13  60 W15       30.13R WCI  13
WASHINGTON *   PTCLDY    25  16  68 W13G20    30.14R WCI  13
$$

ABBREVIATIONS USED IN REMARKS
   TC - TEMPERATURES IN CELSIUS
  WCI - WIND CHILL INDEX
   HX - HEAT INDEX
  VSB - VISIBILITY
$$




USA.gov is the U.S. government's official web portal to all federal, state and local government web resources and services.